| time (UTC) | temp F | wind direction | speed knots | gust knots | rain 1hr in | rain 24hr in | rain mn in | humidity % | barometer mb |
| 20260906212503 | 76 | 3 | 0.0 | 0.9 | 0.00 | 0.00 | 0.00 | 64 | 1022.4 |
| 20260906212003 | 76 | 360 | 0.0 | 0.9 | 0.00 | 0.00 | 0.00 | 64 | 1022.5 |
| 20260906211503 | 76 | 360 | 0.0 | 0.9 | 0.00 | 0.00 | 0.00 | 64 | 1022.4 |
| 20260906211024 | 76 | 0 | 0.0 | 0.0 | 0.00 | 0.00 | 0.00 | 64 | 1022.3 |
| 20260906210503 | 76 | 0 | 0.0 | 0.0 | 0.00 | 0.00 | 0.00 | 63 | 1022.4 |
| 20260906210004 | 76 | 0 | 0.0 | 0.0 | 0.00 | 0.00 | 0.00 | 63 | 1022.3 |
| 20260906205503 | 76 | 22 | 0.0 | 0.9 | 0.00 | 0.00 | 0.00 | 63 | 1022.2 |
| 20260906205003 | 76 | 15 | 0.0 | 0.9 | 0.00 | 0.00 | 0.00 | 63 | 1022.4 |
| 20260906204524 | 76 | 11 | 0.0 | 0.9 | 0.00 | 0.00 | 0.00 | 63 | 1022.5 |
| 20260906204003 | 76 | 11 | 0.0 | 0.9 | 0.00 | 0.00 | 0.00 | 63 | 1022.3 |
| 20260906203503 | 76 | 0 | 0.0 | 0.0 | 0.00 | 0.00 | 0.00 | 63 | 1022.4 |
| 20260906203003 | 77 | 112 | 0.0 | 0.9 | 0.00 | 0.00 | 0.00 | 63 | 1022.2 |
| 20260906202503 | 77 | 58 | 1.7 | 3.5 | 0.00 | 0.00 | 0.00 | 62 | 1022.2 |
| 20260906202003 | 77 | 59 | 2.6 | 3.5 | 0.00 | 0.00 | 0.00 | 62 | 1022.3 |
| 20260906201503 | 77 | 64 | 2.6 | 3.5 | 0.00 | 0.00 | 0.00 | 62 | 1022.4 |
| 20260906201024 | 78 | 67 | 0.9 | 3.5 | 0.00 | 0.00 | 0.00 | 62 | 1022.2 |
| 20260906200503 | 78 | 0 | 0.0 | 0.0 | 0.00 | 0.00 | 0.00 | 61 | 1022.3 |
| 20260906200003 | 78 | 0 | 0.0 | 0.0 | 0.00 | 0.00 | 0.00 | 61 | 1022.1 |
| 20260906195503 | 79 | 0 | 0.0 | 0.0 | 0.00 | 0.00 | 0.00 | 61 | 1022.1 |
| 20260906194503 | 79 | 0 | 0.0 | 0.0 | 0.00 | 0.00 | 0.00 | 61 | 1022.1 |
| 20260906193503 | 79 | 0 | 0.0 | 0.0 | 0.00 | 0.00 | 0.00 | 61 | 1022.1 |
| 20260906193003 | 79 | 0 | 0.0 | 0.0 | 0.00 | 0.00 | 0.00 | 61 | 1021.8 |
| 20260906192503 | 80 | 0 | 0.0 | 0.0 | 0.00 | 0.00 | 0.00 | 61 | 1022.0 |
| 20260906192003 | 80 | 0 | 0.0 | 0.0 | 0.00 | 0.00 | 0.00 | 61 | 1022.0 |
| 20260906191524 | 80 | 0 | 0.0 | 0.0 | 0.00 | 0.00 | 0.00 | 60 | 1022.0 |
| 20260906191003 | 80 | 0 | 0.0 | 0.0 | 0.00 | 0.00 | 0.00 | 60 | 1022.1 |
| 20260906190524 | 80 | 0 | 0.0 | 0.0 | 0.00 | 0.00 | 0.00 | 60 | 1021.9 |
| 20260906190003 | 80 | 0 | 0.0 | 0.0 | 0.00 | 0.00 | 0.00 | 60 | 1022.1 |
| 20260906185503 | 80 | 0 | 0.0 | 0.0 | 0.00 | 0.00 | 0.00 | 60 | 1022.0 |
| 20260906185003 | 80 | 0 | 0.0 | 0.0 | 0.00 | 0.00 | 0.00 | 59 | 1021.8 |
| 20260906184503 | 80 | 0 | 0.0 | 0.0 | 0.00 | 0.00 | 0.00 | 58 | 1021.7 |
| 20260906184003 | 80 | 0 | 0.0 | 0.0 | 0.00 | 0.00 | 0.00 | 58 | 1021.7 |
| 20260906183503 | 80 | 0 | 0.0 | 0.0 | 0.00 | 0.00 | 0.00 | 58 | 1021.7 |
| 20260906183003 | 80 | 0 | 0.0 | 0.0 | 0.00 | 0.00 | 0.00 | 57 | 1021.6 |
| 20260906182503 | 80 | 0 | 0.0 | 0.0 | 0.00 | 0.00 | 0.00 | 57 | 1021.6 |
| 20260906182003 | 81 | 0 | 0.0 | 0.0 | 0.00 | 0.00 | 0.00 | 57 | 1021.5 |
| 20260906181503 | 81 | 0 | 0.0 | 0.0 | 0.00 | 0.00 | 0.00 | 56 | 1021.4 |
| 20260906181003 | 81 | 0 | 0.0 | 0.0 | 0.00 | 0.00 | 0.00 | 56 | 1021.5 |
| 20260906180503 | 81 | 0 | 0.0 | 0.0 | 0.00 | 0.00 | 0.00 | 56 | 1021.6 |
| 20260906180003 | 81 | 0 | 0.0 | 0.0 | 0.00 | 0.00 | 0.00 | 56 | 1021.5 |
| 20260906175503 | 82 | 0 | 0.0 | 0.0 | 0.00 | 0.00 | 0.00 | 52 | 1021.4 |
| 20260906175003 | 82 | 0 | 0.0 | 0.0 | 0.00 | 0.00 | 0.00 | 52 | 1021.5 |
| 20260906174503 | 82 | 0 | 0.0 | 0.0 | 0.00 | 0.00 | 0.00 | 51 | 1021.6 |
| 20260906174024 | 82 | 0 | 0.0 | 0.0 | 0.00 | 0.00 | 0.00 | 52 | 1021.6 |
| 20260906173503 | 83 | 0 | 0.0 | 0.0 | 0.00 | 0.00 | 0.00 | 51 | 1021.4 |
| 20260906173003 | 83 | 0 | 0.0 | 0.0 | 0.00 | 0.00 | 0.00 | 50 | 1021.4 |
| 20260906172503 | 83 | 0 | 0.0 | 0.0 | 0.00 | 0.00 | 0.00 | 49 | 1021.5 |
| 20260906172024 | 84 | 0 | 0.0 | 0.0 | 0.00 | 0.00 | 0.00 | 49 | 1021.4 |
| 20260906171524 | 84 | 0 | 0.0 | 0.0 | 0.00 | 0.00 | 0.00 | 48 | 1021.3 |
| 20260906171003 | 85 | 0 | 0.0 | 0.0 | 0.00 | 0.00 | 0.00 | 46 | 1021.3 |
| 20260906170503 | 86 | 0 | 0.0 | 0.0 | 0.00 | 0.00 | 0.00 | 45 | 1021.2 |
| 20260906170003 | 86 | 0 | 0.0 | 0.0 | 0.00 | 0.00 | 0.00 | 45 | 1021.3 |
| 20260906165503 | 87 | 0 | 0.0 | 0.0 | 0.00 | 0.00 | 0.00 | 44 | 1021.2 |
| 20260906165003 | 88 | 0 | 0.0 | 0.0 | 0.00 | 0.00 | 0.00 | 44 | 1020.9 |
| 20260906164503 | 88 | 0 | 0.0 | 0.0 | 0.00 | 0.00 | 0.00 | 43 | 1021.1 |
| 20260906164003 | 88 | 0 | 0.0 | 0.0 | 0.00 | 0.00 | 0.00 | 43 | 1020.9 |
| 20260906163503 | 88 | 0 | 0.0 | 0.0 | 0.00 | 0.00 | 0.00 | 43 | 1020.8 |
| 20260906163003 | 88 | 0 | 0.0 | 0.0 | 0.00 | 0.00 | 0.00 | 43 | 1020.9 |
| 20260906162503 | 88 | 0 | 0.0 | 0.0 | 0.00 | 0.00 | 0.00 | 42 | 1020.9 |
| 20260906162024 | 89 | 0 | 0.0 | 0.0 | 0.00 | 0.00 | 0.00 | 42 | 1020.9 |
| 20260906161503 | 89 | 0 | 0.0 | 0.0 | 0.00 | 0.00 | 0.00 | 42 | 1020.9 |
| 20260906161003 | 89 | 0 | 0.0 | 0.0 | 0.00 | 0.00 | 0.00 | 42 | 1020.9 |
| 20260906160503 | 89 | 0 | 0.0 | 0.0 | 0.00 | 0.00 | 0.00 | 42 | 1020.9 |
| 20260906160003 | 89 | 296 | 0.0 | 0.9 | 0.00 | 0.00 | 0.00 | 42 | 1020.6 |
| 20260906155503 | 89 | 258 | 0.0 | 0.9 | 0.00 | 0.00 | 0.00 | 42 | 1021.1 |
| 20260906155003 | 89 | 202 | 0.0 | 0.9 | 0.00 | 0.00 | 0.00 | 42 | 1020.8 |
| 20260906154503 | 89 | 0 | 0.0 | 0.0 | 0.00 | 0.00 | 0.00 | 42 | 1020.8 |
| 20260906154003 | 88 | 135 | 0.0 | 2.6 | 0.00 | 0.00 | 0.00 | 42 | 1020.8 |
| 20260906153503 | 88 | 148 | 0.9 | 2.6 | 0.00 | 0.00 | 0.00 | 42 | 1020.7 |
| 20260906153003 | 88 | 153 | 0.9 | 3.5 | 0.00 | 0.00 | 0.00 | 42 | 1020.9 |
| 20260906152524 | 88 | 161 | 0.9 | 3.5 | 0.00 | 0.00 | 0.00 | 42 | 1021.1 |
| 20260906152003 | 89 | 171 | 0.0 | 1.7 | 0.00 | 0.00 | 0.00 | 42 | 1020.8 |
| 20260906151524 | 89 | 133 | 1.7 | 4.3 | 0.00 | 0.00 | 0.00 | 42 | 1020.8 |
| 20260906151003 | 89 | 211 | 3.5 | 4.3 | 0.00 | 0.00 | 0.00 | 42 | 1021.1 |
| 20260906150503 | 89 | 247 | 1.7 | 3.5 | 0.00 | 0.00 | 0.00 | 42 | 1021.2 |
| 20260906150003 | 89 | 231 | 0.0 | 3.5 | 0.00 | 0.00 | 0.00 | 42 | 1021.1 |
| 20260906145503 | 89 | 161 | 0.9 | 2.6 | 0.00 | 0.00 | 0.00 | 42 | 1021.1 |
| 20260906145024 | 89 | 160 | 0.9 | 2.6 | 0.00 | 0.00 | 0.00 | 42 | 1021.1 |
| 20260906144503 | 89 | 47 | 0.0 | 1.7 | 0.00 | 0.00 | 0.00 | 42 | 1021.1 |
| 20260906144003 | 89 | 43 | 0.0 | 1.7 | 0.00 | 0.00 | 0.00 | 42 | 1021.1 |
| 20260906143503 | 89 | 67 | 0.0 | 1.7 | 0.00 | 0.00 | 0.00 | 42 | 1021.1 |
| 20260906143003 | 89 | 229 | 0.0 | 0.9 | 0.00 | 0.00 | 0.00 | 43 | 1021.2 |
| 20260906142524 | 89 | 206 | 0.9 | 2.6 | 0.00 | 0.00 | 0.00 | 42 | 1021.2 |
| 20260906142003 | 89 | 202 | 0.9 | 3.5 | 0.00 | 0.00 | 0.00 | 42 | 1021.1 |
| 20260906141503 | 89 | 174 | 1.7 | 3.5 | 0.00 | 0.00 | 0.00 | 42 | 1021.1 |
| 20260906141003 | 89 | 160 | 0.9 | 3.5 | 0.00 | 0.00 | 0.00 | 42 | 1021.1 |
| 20260906140503 | 89 | 0 | 0.0 | 0.0 | 0.00 | 0.00 | 0.00 | 43 | 1021.4 |
| 20260906140003 | 89 | 349 | 0.0 | 0.9 | 0.00 | 0.00 | 0.00 | 43 | 1021.2 |
| 20260906135503 | 89 | 306 | 0.0 | 0.9 | 0.00 | 0.00 | 0.00 | 42 | 1021.2 |
| 20260906135003 | 89 | 180 | 0.0 | 0.9 | 0.00 | 0.00 | 0.00 | 43 | 1021.4 |
| 20260906134524 | 88 | 190 | 0.9 | 4.3 | 0.00 | 0.00 | 0.00 | 43 | 1021.6 |
| 20260906134003 | 88 | 217 | 1.7 | 4.3 | 0.00 | 0.00 | 0.00 | 43 | 1021.5 |
| 20260906133503 | 88 | 192 | 1.7 | 3.5 | 0.00 | 0.00 | 0.00 | 43 | 1021.6 |
| 20260906133003 | 88 | 117 | 0.9 | 3.5 | 0.00 | 0.00 | 0.00 | 43 | 1021.5 |
| 20260906132524 | 88 | 98 | 0.0 | 1.7 | 0.00 | 0.00 | 0.00 | 43 | 1021.7 |
| 20260906132003 | 88 | 243 | 0.9 | 3.5 | 0.00 | 0.00 | 0.00 | 43 | 1021.8 |
| 20260906131503 | 88 | 247 | 1.7 | 4.3 | 0.00 | 0.00 | 0.00 | 43 | 1021.6 |
| 20260906131024 | 88 | 247 | 1.7 | 4.3 | 0.00 | 0.00 | 0.00 | 43 | 1021.7 |
| 20260906130503 | 87 | 113 | 0.0 | 1.7 | 0.00 | 0.00 | 0.00 | 43 | 1021.8 |
| 20260906130003 | 87 | 170 | 1.7 | 4.3 | 0.00 | 0.00 | 0.00 | 43 | 1021.9 |
| 20260906125503 | 87 | 205 | 2.6 | 5.2 | 0.00 | 0.00 | 0.00 | 43 | 1021.9 |
| 20260906125003 | 87 | 209 | 1.7 | 5.2 | 0.00 | 0.00 | 0.00 | 43 | 1021.9 |
| 20260906124503 | 87 | 242 | 0.9 | 3.5 | 0.00 | 0.00 | 0.00 | 43 | 1021.9 |
| 20260906124003 | 87 | 225 | 2.6 | 5.2 | 0.00 | 0.00 | 0.00 | 43 | 1022.0 |
| 20260906123503 | 87 | 217 | 2.6 | 5.2 | 0.00 | 0.00 | 0.00 | 43 | 1021.9 |
| 20260906123003 | 87 | 216 | 0.9 | 2.6 | 0.00 | 0.00 | 0.00 | 43 | 1022.0 |
| 20260906122503 | 87 | 22 | 0.0 | 0.9 | 0.00 | 0.00 | 0.00 | 43 | 1022.0 |
| 20260906122003 | 87 | 246 | 0.9 | 4.3 | 0.00 | 0.00 | 0.00 | 43 | 1021.9 |
| 20260906121503 | 87 | 236 | 1.7 | 4.3 | 0.00 | 0.00 | 0.00 | 43 | 1021.9 |
| 20260906121003 | 87 | 226 | 1.7 | 4.3 | 0.00 | 0.00 | 0.00 | 43 | 1021.9 |
| 20260906120503 | 87 | 135 | 0.0 | 0.9 | 0.00 | 0.00 | 0.00 | 44 | 1021.8 |
| 20260906120003 | 87 | 135 | 0.0 | 0.9 | 0.00 | 0.00 | 0.00 | 44 | 1022.0 |
| 20260906115503 | 86 | 0 | 0.0 | 0.0 | 0.00 | 0.00 | 0.00 | 44 | 1021.9 |
| 20260906115024 | 86 | 0 | 0.0 | 0.0 | 0.00 | 0.00 | 0.00 | 44 | 1022.1 |
| 20260906114505 | 86 | 271 | 0.9 | 3.5 | 0.00 | 0.00 | 0.00 | 44 | 1022.2 |
| 20260906114026 | 86 | 243 | 1.7 | 3.5 | 0.00 | 0.00 | 0.00 | 44 | 1022.2 |
| 20260906113505 | 86 | 230 | 1.7 | 6.1 | 0.00 | 0.00 | 0.00 | 44 | 1022.3 |
| 20260906113005 | 86 | 234 | 1.7 | 6.1 | 0.00 | 0.00 | 0.00 | 44 | 1022.1 |
| 20260906112526 | 86 | 321 | 1.7 | 5.2 | 0.00 | 0.00 | 0.00 | 45 | 1022.1 |
| 20260906112005 | 85 | 328 | 2.6 | 5.2 | 0.00 | 0.00 | 0.00 | 45 | 1022.1 |
| 20260906111505 | 85 | 338 | 1.7 | 3.5 | 0.00 | 0.00 | 0.00 | 46 | 1022.1 |
| 20260906111005 | 85 | 335 | 0.0 | 1.7 | 0.00 | 0.00 | 0.00 | 46 | 1022.0 |
| 20260906110505 | 84 | 22 | 0.0 | 0.9 | 0.00 | 0.00 | 0.00 | 45 | 1022.0 |
| 20260906110026 | 84 | 22 | 0.0 | 0.9 | 0.00 | 0.00 | 0.00 | 45 | 1022.2 |
| 20260906105505 | 84 | 315 | 0.0 | 0.9 | 0.00 | 0.00 | 0.00 | 45 | 1022.3 |
| 20260906105005 | 84 | 315 | 0.0 | 0.9 | 0.00 | 0.00 | 0.00 | 45 | 1022.2 |
| 20260906104526 | 84 | 76 | 0.0 | 1.7 | 0.00 | 0.00 | 0.00 | 44 | 1022.4 |
| 20260906104026 | 84 | 64 | 0.9 | 3.5 | 0.00 | 0.00 | 0.00 | 44 | 1022.4 |
| 20260906103526 | 84 | 51 | 0.9 | 3.5 | 0.00 | 0.00 | 0.00 | 44 | 1022.4 |
| 20260906103005 | 84 | 32 | 0.0 | 1.7 | 0.00 | 0.00 | 0.00 | 45 | 1022.5 |
| 20260906102505 | 84 | 67 | 0.0 | 0.9 | 0.00 | 0.00 | 0.00 | 44 | 1022.5 |
| 20260906102005 | 84 | 67 | 0.0 | 0.9 | 0.00 | 0.00 | 0.00 | 45 | 1022.5 |
| 20260906101505 | 84 | 0 | 0.0 | 0.0 | 0.00 | 0.00 | 0.00 | 45 | 1022.4 |
| 20260906101005 | 83 | 0 | 0.0 | 0.0 | 0.00 | 0.00 | 0.00 | 45 | 1022.7 |
| 20260906100526 | 84 | 337 | 0.0 | 0.9 | 0.00 | 0.00 | 0.00 | 44 | 1022.7 |
| 20260906100005 | 84 | 337 | 0.0 | 0.9 | 0.00 | 0.00 | 0.00 | 44 | 1022.8 |
| 20260906095505 | 84 | 0 | 0.0 | 0.0 | 0.00 | 0.00 | 0.00 | 44 | 1022.7 |
| 20260906095026 | 84 | 0 | 0.0 | 0.0 | 0.00 | 0.00 | 0.00 | 45 | 1022.8 |
| 20260906094526 | 84 | 360 | 0.0 | 0.9 | 0.00 | 0.00 | 0.00 | 46 | 1022.8 |
| 20260906094005 | 83 | 360 | 0.0 | 0.9 | 0.00 | 0.00 | 0.00 | 45 | 1022.7 |
| 20260906093505 | 83 | 4 | 0.0 | 1.7 | 0.00 | 0.00 | 0.00 | 44 | 1022.8 |
| 20260906093005 | 83 | 12 | 0.0 | 1.7 | 0.00 | 0.00 | 0.00 | 43 | 1022.6 |
| 20260906092505 | 83 | 18 | 0.0 | 1.7 | 0.00 | 0.00 | 0.00 | 43 | 1022.8 |
| 20260906092026 | 83 | 0 | 0.0 | 0.0 | 0.00 | 0.00 | 0.00 | 43 | 1022.8 |
| 20260906091505 | 82 | 12 | 0.0 | 1.7 | 0.00 | 0.00 | 0.00 | 43 | 1022.8 |
| 20260906091005 | 82 | 12 | 0.0 | 1.7 | 0.00 | 0.00 | 0.00 | 43 | 1022.9 |
| 20260906090505 | 81 | 355 | 0.0 | 1.7 | 0.00 | 0.00 | 0.00 | 46 | 1022.8 |
| 20260906090005 | 81 | 359 | 0.9 | 1.7 | 0.00 | 0.00 | 0.00 | 46 | 1022.8 |
| 20260906085505 | 81 | 2 | 0.0 | 1.7 | 0.00 | 0.00 | 0.00 | 46 | 1022.9 |
| 20260906085005 | 81 | 7 | 0.9 | 1.7 | 0.00 | 0.00 | 0.00 | 46 | 1022.7 |
| 20260906084505 | 81 | 4 | 0.9 | 1.7 | 0.00 | 0.00 | 0.00 | 46 | 1022.8 |
| 20260906084026 | 81 | 10 | 0.9 | 4.3 | 0.00 | 0.00 | 0.00 | 46 | 1022.7 |
| 20260906083505 | 81 | 15 | 0.9 | 4.3 | 0.00 | 0.00 | 0.00 | 48 | 1022.9 |
| 20260906083005 | 81 | 360 | 0.0 | 3.5 | 0.00 | 0.00 | 0.00 | 50 | 1022.8 |
| 20260906082505 | 81 | 360 | 0.9 | 3.5 | 0.00 | 0.00 | 0.00 | 48 | 1022.5 |
| 20260906082005 | 81 | 345 | 0.0 | 3.5 | 0.00 | 0.00 | 0.00 | 47 | 1022.6 |
| 20260906081505 | 80 | 315 | 0.0 | 0.9 | 0.00 | 0.00 | 0.00 | 48 | 1022.7 |
| 20260906081005 | 80 | 0 | 0.0 | 0.0 | 0.00 | 0.00 | 0.00 | 49 | 1022.8 |
| 20260906080505 | 80 | 0 | 0.0 | 0.0 | 0.00 | 0.00 | 0.00 | 50 | 1022.6 |
| 20260906080005 | 80 | 0 | 0.0 | 0.0 | 0.00 | 0.00 | 0.00 | 50 | 1022.5 |
| 20260906075505 | 79 | 0 | 0.0 | 0.0 | 0.00 | 0.00 | 0.00 | 50 | 1022.5 |
| 20260906075005 | 79 | 0 | 0.0 | 0.0 | 0.00 | 0.00 | 0.00 | 50 | 1022.3 |
| 20260906074526 | 78 | 0 | 0.0 | 0.0 | 0.00 | 0.00 | 0.00 | 50 | 1022.3 |
| 20260906074005 | 78 | 360 | 0.0 | 1.7 | 0.00 | 0.00 | 0.00 | 50 | 1022.3 |
| 20260906073505 | 77 | 360 | 0.0 | 1.7 | 0.00 | 0.00 | 0.00 | 50 | 1022.2 |
| 20260906073005 | 77 | 360 | 0.0 | 1.7 | 0.00 | 0.00 | 0.00 | 50 | 1022.3 |
| 20260906072526 | 76 | 360 | 0.0 | 0.9 | 0.00 | 0.00 | 0.00 | 50 | 1022.3 |
| 20260906072005 | 76 | 360 | 0.0 | 0.9 | 0.00 | 0.00 | 0.00 | 50 | 1022.3 |
| 20260906071505 | 76 | 0 | 0.0 | 0.0 | 0.00 | 0.00 | 0.00 | 50 | 1022.2 |
| 20260906071005 | 76 | 0 | 0.0 | 0.0 | 0.00 | 0.00 | 0.00 | 50 | 1022.2 |
| 20260906070526 | 75 | 0 | 0.0 | 0.0 | 0.00 | 0.00 | 0.00 | 50 | 1022.1 |
| 20260906070005 | 75 | 0 | 0.0 | 0.0 | 0.00 | 0.00 | 0.00 | 50 | 1022.1 |
| 20260906065505 | 75 | 0 | 0.0 | 0.0 | 0.00 | 0.00 | 0.00 | 50 | 1022.0 |
| 20260906065005 | 74 | 0 | 0.0 | 0.0 | 0.00 | 0.00 | 0.00 | 50 | 1021.9 |
| 20260906064505 | 74 | 0 | 0.0 | 0.0 | 0.00 | 0.00 | 0.00 | 49 | 1021.9 |
| 20260906064005 | 74 | 8 | 0.0 | 0.9 | 0.00 | 0.00 | 0.00 | 48 | 1022.0 |
| 20260906063505 | 74 | 16 | 0.0 | 1.7 | 0.00 | 0.00 | 0.00 | 48 | 1021.7 |
| 20260906063005 | 74 | 22 | 0.0 | 1.7 | 0.00 | 0.00 | 0.00 | 47 | 1021.9 |
| 20260906062505 | 73 | 0 | 0.0 | 0.0 | 0.00 | 0.00 | 0.00 | 47 | 1021.9 |
| 20260906062005 | 73 | 0 | 0.0 | 0.0 | 0.00 | 0.00 | 0.00 | 46 | 1021.8 |
| 20260906061505 | 74 | 0 | 0.0 | 0.0 | 0.00 | 0.00 | 0.00 | 45 | 1021.8 |
| 20260906061005 | 74 | 0 | 0.0 | 0.0 | 0.00 | 0.00 | 0.00 | 45 | 1021.7 |
| 20260906060505 | 74 | 360 | 0.0 | 0.9 | 0.00 | 0.00 | 0.00 | 45 | 1021.5 |
| 20260906060005 | 74 | 13 | 0.0 | 1.7 | 0.00 | 0.00 | 0.00 | 45 | 1021.6 |
| 20260906055526 | 74 | 22 | 0.0 | 1.7 | 0.00 | 0.00 | 0.00 | 45 | 1021.6 |
| 20260906055005 | 74 | 22 | 0.0 | 1.7 | 0.00 | 0.00 | 0.00 | 45 | 1021.5 |
| 20260906054505 | 74 | 22 | 0.9 | 2.6 | 0.00 | 0.00 | 0.00 | 45 | 1021.4 |
| 20260906054005 | 74 | 22 | 0.9 | 2.6 | 0.00 | 0.00 | 0.00 | 45 | 1021.2 |
| 20260906053505 | 73 | 0 | 0.0 | 0.0 | 0.00 | 0.00 | 0.00 | 45 | 1021.3 |
| 20260906053005 | 73 | 360 | 0.9 | 2.6 | 0.00 | 0.00 | 0.00 | 45 | 1021.3 |
| 20260906052505 | 73 | 360 | 0.9 | 2.6 | 0.00 | 0.00 | 0.00 | 44 | 1021.3 |
| 20260906052006 | 73 | 0 | 0.0 | 0.0 | 0.00 | 0.00 | 0.00 | 44 | 1021.1 |
| 20260906051505 | 73 | 0 | 0.0 | 0.0 | 0.00 | 0.00 | 0.00 | 44 | 1020.9 |
| 20260906051005 | 73 | 19 | 0.0 | 1.7 | 0.00 | 0.00 | 0.00 | 43 | 1020.8 |
| 20260906050505 | 74 | 37 | 0.9 | 1.7 | 0.00 | 0.00 | 0.00 | 43 | 1020.6 |
| 20260906050005 | 74 | 29 | 0.9 | 2.6 | 0.00 | 0.00 | 0.00 | 43 | 1020.6 |
| 20260906045505 | 74 | 18 | 0.9 | 2.6 | 0.00 | 0.00 | 0.00 | 43 | 1020.7 |
| 20260906045005 | 74 | 22 | 0.0 | 2.6 | 0.00 | 0.00 | 0.00 | 43 | 1020.6 |
| 20260906044505 | 74 | 41 | 1.7 | 3.5 | 0.00 | 0.00 | 0.00 | 43 | 1020.4 |
| 20260906044005 | 74 | 45 | 2.6 | 3.5 | 0.00 | 0.00 | 0.00 | 43 | 1020.4 |
| 20260906043505 | 74 | 59 | 1.7 | 3.5 | 0.00 | 0.00 | 0.00 | 43 | 1020.3 |
| 20260906043005 | 74 | 75 | 2.6 | 4.3 | 0.00 | 0.00 | 0.00 | 43 | 1020.4 |
| 20260906042505 | 74 | 57 | 2.6 | 4.3 | 0.00 | 0.00 | 0.00 | 43 | 1020.4 |
| 20260906042005 | 74 | 49 | 1.7 | 4.3 | 0.00 | 0.00 | 0.00 | 43 | 1020.3 |
| 20260906041505 | 74 | 65 | 2.6 | 3.5 | 0.00 | 0.00 | 0.00 | 43 | 1020.4 |
| 20260906041005 | 75 | 66 | 3.5 | 3.5 | 0.00 | 0.00 | 0.00 | 42 | 1020.3 |
| 20260906040505 | 75 | 58 | 3.5 | 3.5 | 0.00 | 0.00 | 0.00 | 42 | 1020.3 |
| 20260906040005 | 75 | 40 | 3.5 | 3.5 | 0.00 | 0.00 | 0.00 | 42 | 1020.3 |
| 20260906035526 | 75 | 34 | 1.7 | 3.5 | 0.00 | 0.00 | 0.00 | 42 | 1020.3 |
| 20260906035005 | 75 | 22 | 1.7 | 3.5 | 0.00 | 0.00 | 0.00 | 41 | 1020.2 |
| 20260906034505 | 75 | 21 | 1.7 | 3.5 | 0.00 | 0.00 | 0.00 | 41 | 1020.1 |
| 20260906034005 | 75 | 33 | 0.9 | 3.5 | 0.00 | 0.00 | 0.00 | 41 | 1020.3 |
| 20260906033505 | 75 | 35 | 0.9 | 2.6 | 0.00 | 0.00 | 0.00 | 42 | 1020.2 |
| 20260906033005 | 75 | 20 | 0.0 | 2.6 | 0.00 | 0.00 | 0.00 | 42 | 1020.1 |
| 20260906032505 | 74 | 0 | 0.0 | 0.0 | 0.00 | 0.00 | 0.00 | 43 | 1020.2 |
| 20260906032005 | 74 | 0 | 0.0 | 0.0 | 0.00 | 0.00 | 0.00 | 43 | 1020.0 |
| 20260906031526 | 74 | 0 | 0.0 | 0.0 | 0.00 | 0.00 | 0.00 | 43 | 1020.1 |
| 20260906031005 | 73 | 0 | 0.0 | 0.0 | 0.00 | 0.00 | 0.00 | 43 | 1020.1 |
| 20260906030526 | 73 | 360 | 0.0 | 1.7 | 0.00 | 0.00 | 0.00 | 43 | 1020.1 |
| 20260906030005 | 74 | 360 | 0.0 | 1.7 | 0.00 | 0.00 | 0.00 | 42 | 1019.9 |
| 20260906025526 | 75 | 17 | 0.0 | 2.6 | 0.00 | 0.00 | 0.00 | 41 | 1020.0 |
| 20260906025026 | 75 | 17 | 0.9 | 3.5 | 0.00 | 0.00 | 0.00 | 41 | 1019.9 |
| 20260906024505 | 75 | 24 | 0.9 | 3.5 | 0.00 | 0.00 | 0.00 | 41 | 1019.9 |
| 20260906024005 | 75 | 41 | 0.0 | 3.5 | 0.00 | 0.00 | 0.00 | 41 | 1019.9 |
| 20260906023505 | 76 | 22 | 0.0 | 0.9 | 0.00 | 0.00 | 0.00 | 41 | 1019.9 |
| 20260906023005 | 76 | 22 | 0.0 | 0.9 | 0.00 | 0.00 | 0.00 | 41 | 1019.8 |
| 20260906022505 | 76 | 22 | 0.0 | 0.9 | 0.00 | 0.00 | 0.00 | 40 | 1019.7 |
| 20260906022005 | 76 | 0 | 0.0 | 0.0 | 0.00 | 0.00 | 0.00 | 40 | 1019.9 |
| 20260906021505 | 76 | 0 | 0.0 | 0.0 | 0.00 | 0.00 | 0.00 | 40 | 1019.8 |
| 20260906021005 | 76 | 0 | 0.0 | 0.0 | 0.00 | 0.00 | 0.00 | 41 | 1019.6 |
| 20260906020505 | 77 | 0 | 0.0 | 0.0 | 0.00 | 0.00 | 0.00 | 40 | 1019.6 |
| 20260906020005 | 77 | 22 | 0.0 | 0.9 | 0.00 | 0.00 | 0.00 | 40 | 1019.6 |
| 20260906015505 | 77 | 5 | 0.0 | 1.7 | 0.00 | 0.00 | 0.00 | 40 | 1019.4 |
| 20260906015005 | 77 | 5 | 0.0 | 1.7 | 0.00 | 0.00 | 0.00 | 41 | 1019.4 |
| 20260906014505 | 77 | 22 | 0.0 | 0.9 | 0.00 | 0.00 | 0.00 | 41 | 1019.5 |
| 20260906014005 | 77 | 22 | 0.0 | 0.9 | 0.00 | 0.00 | 0.00 | 41 | 1019.5 |
| 20260906013505 | 77 | 22 | 0.0 | 0.9 | 0.00 | 0.00 | 0.00 | 41 | 1019.3 |
| 20260906013005 | 77 | 22 | 0.0 | 0.9 | 0.00 | 0.00 | 0.00 | 41 | 1019.5 |
| 20260906012505 | 77 | 0 | 0.0 | 0.0 | 0.00 | 0.00 | 0.00 | 41 | 1019.4 |
| 20260906012005 | 77 | 22 | 0.0 | 0.9 | 0.00 | 0.00 | 0.00 | 41 | 1019.3 |
| 20260906011505 | 77 | 22 | 0.0 | 1.7 | 0.00 | 0.00 | 0.00 | 41 | 1019.3 |
| 20260906011005 | 76 | 20 | 0.0 | 1.7 | 0.00 | 0.00 | 0.00 | 40 | 1019.3 |
| 20260906010505 | 76 | 35 | 0.0 | 1.7 | 0.00 | 0.00 | 0.00 | 40 | 1019.5 |
| 20260906010005 | 76 | 45 | 0.0 | 1.7 | 0.00 | 0.00 | 0.00 | 40 | 1019.3 |
| 20260906005505 | 76 | 27 | 0.9 | 1.7 | 0.00 | 0.00 | 0.00 | 40 | 1019.4 |
| 20260906005005 | 76 | 29 | 1.7 | 4.3 | 0.00 | 0.00 | 0.00 | 40 | 1019.3 |
| 20260906004526 | 76 | 34 | 2.6 | 4.3 | 0.00 | 0.00 | 0.00 | 40 | 1019.4 |
| 20260906004005 | 77 | 66 | 2.6 | 5.2 | 0.00 | 0.00 | 0.00 | 40 | 1019.2 |
| 20260906003526 | 77 | 96 | 4.3 | 7.0 | 0.00 | 0.00 | 0.00 | 40 | 1019.2 |
| 20260906003026 | 77 | 93 | 7.0 | 10.4 | 0.00 | 0.00 | 0.00 | 40 | 1019.1 |
| 20260906002505 | 77 | 84 | 6.1 | 10.4 | 0.00 | 0.00 | 0.00 | 40 | 1019.2 |
| 20260906002005 | 77 | 75 | 3.5 | 6.1 | 0.00 | 0.00 | 0.00 | 40 | 1019.3 |
| 20260906001505 | 78 | 62 | 1.7 | 5.2 | 0.00 | 0.00 | 0.00 | 38 | 1019.0 |
| 20260906001026 | 78 | 29 | 1.7 | 1.7 | 0.00 | 0.00 | 0.00 | 38 | 1018.9 |
| 20260906000505 | 78 | 22 | 2.6 | 3.5 | 0.00 | 0.00 | 0.00 | 38 | 1019.0 |
| 20260906000005 | 78 | 26 | 2.6 | 4.3 | 0.00 | 0.00 | 0.00 | 38 | 1019.0 |
| 20260905235505 | 78 | 20 | 3.5 | 4.3 | 0.00 | 0.00 | 0.00 | 39 | 1018.9 |
| 20260905235005 | 78 | 10 | 3.5 | 4.3 | 0.00 | 0.00 | 0.00 | 40 | 1019.0 |
| 20260905234505 | 78 | 15 | 2.6 | 3.5 | 0.00 | 0.00 | 0.00 | 40 | 1018.9 |
| 20260905234005 | 77 | 17 | 2.6 | 3.5 | 0.00 | 0.00 | 0.00 | 40 | 1018.9 |
| 20260905233505 | 77 | 7 | 1.7 | 2.6 | 0.00 | 0.00 | 0.00 | 40 | 1019.0 |
| 20260905233026 | 77 | 350 | 1.7 | 4.3 | 0.00 | 0.00 | 0.00 | 40 | 1018.9 |
| 20260905232505 | 76 | 355 | 1.7 | 4.3 | 0.00 | 0.00 | 0.00 | 41 | 1019.0 |
| 20260905232005 | 76 | 7 | 1.7 | 4.3 | 0.00 | 0.00 | 0.00 | 41 | 1019.2 |
| 20260905231505 | 76 | 346 | 1.7 | 4.3 | 0.00 | 0.00 | 0.00 | 41 | 1019.0 |
| 20260905231003 | 76 | 1 | 1.7 | 4.3 | 0.00 | 0.00 | 0.00 | 41 | 1018.9 |
| 20260905230503 | 76 | 353 | 1.7 | 4.3 | 0.00 | 0.00 | 0.00 | 41 | 1018.9 |
| 20260905230003 | 76 | 345 | 0.9 | 3.5 | 0.00 | 0.00 | 0.00 | 41 | 1018.9 |
| 20260905225503 | 76 | 2 | 1.7 | 3.5 | 0.00 | 0.00 | 0.00 | 40 | 1018.9 |
| 20260905225003 | 77 | 3 | 2.6 | 3.5 | 0.00 | 0.00 | 0.00 | 40 | 1019.0 |
| 20260905224503 | 77 | 358 | 2.6 | 3.5 | 0.00 | 0.00 | 0.00 | 40 | 1018.9 |
| 20260905224024 | 77 | 1 | 2.6 | 3.5 | 0.00 | 0.00 | 0.00 | 40 | 1018.9 |
| 20260905223503 | 78 | 7 | 2.6 | 3.5 | 0.00 | 0.00 | 0.00 | 40 | 1018.8 |
| 20260905223003 | 78 | 3 | 1.7 | 3.5 | 0.00 | 0.00 | 0.00 | 38 | 1018.8 |
| 20260905222524 | 79 | 3 | 1.7 | 2.6 | 0.00 | 0.00 | 0.00 | 38 | 1018.7 |
| 20260905222003 | 79 | 13 | 1.7 | 5.2 | 0.00 | 0.00 | 0.00 | 37 | 1018.7 |
| 20260905221503 | 80 | 23 | 2.6 | 5.2 | 0.00 | 0.00 | 0.00 | 35 | 1018.8 |
| 20260905221003 | 80 | 12 | 3.5 | 3.5 | 0.00 | 0.00 | 0.00 | 35 | 1018.6 |
| 20260905220503 | 81 | 14 | 4.3 | 5.2 | 0.00 | 0.00 | 0.00 | 35 | 1018.6 |
| 20260905220004 | 81 | 21 | 3.5 | 7.0 | 0.00 | 0.00 | 0.00 | 35 | 1018.7 |
| 20260905215503 | 81 | 19 | 2.6 | 7.0 | 0.00 | 0.00 | 0.00 | 35 | 1018.7 |
| 20260905215003 | 81 | 22 | 1.7 | 5.2 | 0.00 | 0.00 | 0.00 | 35 | 1018.6 |
| 20260905214503 | 81 | 22 | 1.7 | 5.2 | 0.00 | 0.00 | 0.00 | 35 | 1018.6 |
| 20260905214003 | 81 | 22 | 0.9 | 2.6 | 0.00 | 0.00 | 0.00 | 35 | 1018.6 |
| 20260905213503 | 81 | 13 | 0.9 | 2.6 | 0.00 | 0.00 | 0.00 | 35 | 1018.6 |
| 20260905213024 | 81 | 11 | 1.7 | 4.3 | 0.00 | 0.00 | 0.00 | 35 | 1018.5 |